• In Deutschland
  • Länderverzeichnis
  • Für 7 Tage
  • Wassertemperatur
  • Satellitenkarten
  • Wetterkarte
  • Widgets
  • user-avatar
    Anmelden

    Stündliche Wetter Rheinbach

    Heute, 17 Oktober, Dienstag

    Zeit Temperatur Niederschläge Wind Luftdruck Luftfeuchtigkeit
    00:00 +16°C° 0 mm 2 m/S 750 mmHg 81%
    01:00 +15°C° 0 mm 2 m/S 750 mmHg 84%
    02:00 +15°C° 0 mm 1 m/S 750 mmHg 86%
    03:00 +14°C° 0 mm 1 m/S 750 mmHg 89%
    04:00 +14°C° 0 mm 1 m/S 750 mmHg 90%
    05:00 +14°C° 0 mm 1 m/S 750 mmHg 91%
    06:00 +14°C° 0 mm 1 m/S 750 mmHg 92%
    07:00 +16°C° 0 mm 1 m/S 750 mmHg 87%
    08:00 +18°C° 0 mm 1 m/S 750 mmHg 81%
    09:00 +20°C° 0 mm 1 m/S 751 mmHg 75%
    10:00 +21°C° 0 mm 1 m/S 750 mmHg 71%
    11:00 +22°C° 0 mm 1 m/S 750 mmHg 67%
    12:00 +24°C° 0 mm 1 m/S 750 mmHg 63%
    13:00 +24°C° 0 mm 1 m/S 749 mmHg 65%
    14:00 +23°C° 0 mm 1 m/S 749 mmHg 67%
    15:00 +23°C° 0 mm 1 m/S 748 mmHg 69%
    16:00 +22°C° 0 mm 1 m/S 748 mmHg 75%
    17:00 +20°C° 0 mm 1 m/S 748 mmHg 81%
    18:00 +18°C° 0 mm 1 m/S 748 mmHg 87%
    19:00 +16°C° 0 mm 1 m/S 748 mmHg 88%
    20:00 +16°C° 0 mm 1 m/S 747 mmHg 90%
    21:00 +15°C° 0 mm 1 m/S 747 mmHg 91%
    22:00 +15°C° 0 mm 1 m/S 747 mmHg 91%
    23:00 +15°C° 0 mm 1 m/S 747 mmHg 92%

    Morgen, 18 Oktober, Mittwoch

    Zeit Temperatur Niederschläge Wind Luftdruck Luftfeuchtigkeit
    00:00 +14°C° 0 mm 1 m/S 747 mmHg 92%
    01:00 +14°C° 0 mm 1 m/S 746 mmHg 92%
    02:00 +13°C° 0 mm 2 m/S 746 mmHg 91%
    03:00 +13°C° 0 mm 2 m/S 745 mmHg 91%
    04:00 +13°C° 0 mm 2 m/S 745 mmHg 89%
    05:00 +12°C° 0 mm 2 m/S 745 mmHg 88%
    06:00 +12°C° 0 mm 2 m/S 745 mmHg 86%
    07:00 +13°C° 0 mm 2 m/S 745 mmHg 79%
    08:00 +15°C° 0 mm 2 m/S 745 mmHg 72%
    09:00 +16°C° 0 mm 2 m/S 745 mmHg 65%
    10:00 +18°C° 0 mm 2 m/S 745 mmHg 62%
    11:00 +19°C° 0 mm 2 m/S 745 mmHg 59%
    12:00 +20°C° 0 mm 2 m/S 744 mmHg 56%
    13:00 +20°C° 0 mm 2 m/S 744 mmHg 59%
    14:00 +20°C° 0 mm 2 m/S 744 mmHg 61%
    15:00 +20°C° 0 mm 2 m/S 744 mmHg 64%
    16:00 +19°C° 0 mm 1 m/S 744 mmHg 71%
    17:00 +16°C° 0 mm 1 m/S 744 mmHg 78%
    18:00 +15°C° 0 mm 1 m/S 744 mmHg 85%
    19:00 +14°C° 0 mm 1 m/S 744 mmHg 86%
    20:00 +14°C° 0 mm 1 m/S 744 mmHg 87%
    21:00 +13°C° 0 mm 1 m/S 744 mmHg 88%
    22:00 +13°C° 0 mm 1 m/S 744 mmHg 89%
    23:00 +13°C° 0 mm 1 m/S 744 mmHg 90%

    übermorgen, 19 Oktober, Donnerstag

    Zeit Temperatur Niederschläge Wind Luftdruck Luftfeuchtigkeit
    00:00 +13°C° 0 mm 1 m/S 743 mmHg 90%
    01:00 +12°C° 0 mm 1 m/S 743 mmHg 91%
    02:00 +12°C° 0 mm 1 m/S 743 mmHg 91%
    03:00 +12°C° 0 mm 1 m/S 743 mmHg 91%
    04:00 +12°C° 0 mm 2 m/S 743 mmHg 91%
    05:00 +12°C° 0 mm 2 m/S 743 mmHg 90%
    06:00 +12°C° 0 mm 2 m/S 743 mmHg 90%
    07:00 +14°C° 0 mm 2 m/S 743 mmHg 83%
    08:00 +14°C° 0 mm 3 m/S 743 mmHg 75%
    09:00 +17°C° 0 mm 3 m/S 743 mmHg 68%
    10:00 +18°C° 0 mm 4 m/S 743 mmHg 65%
    11:00 +19°C° 0 mm 4 m/S 743 mmHg 62%
    12:00 +20°C° 0 mm 5 m/S 743 mmHg 59%
    13:00 +19°C° 0,1 mm 4 m/S 742 mmHg 63%
    14:00 +18°C° 0,1 mm 4 m/S 742 mmHg 66%
    15:00 +18°C° 0,1 mm 3 m/S 742 mmHg 70%
    16:00 +17°C° 0 mm 4 m/S 742 mmHg 72%
    17:00 +15°C° 0 mm 4 m/S 742 mmHg 74%
    18:00 +14°C° 0 mm 4 m/S 742 mmHg 76%
    19:00 +14°C° 0 mm 4 m/S 742 mmHg 77%
    20:00 +14°C° 0 mm 3 m/S 742 mmHg 78%
    21:00 +14°C° 0 mm 3 m/S 742 mmHg 79%
    22:00 +14°C° 0 mm 3 m/S 742 mmHg 80%
    23:00 +14°C° 0 mm 3 m/S 742 mmHg 81%

    20 Oktober, Freitag

    Zeit Temperatur Niederschläge Wind Luftdruck Luftfeuchtigkeit
    00:00 +13°C° 0 mm 3 m/S 742 mmHg 83%
    01:00 +14°C° 0,2 mm 3 m/S 742 mmHg 84%
    02:00 +14°C° 0,2 mm 3 m/S 742 mmHg 86%
    03:00 +14°C° 0,2 mm 3 m/S 742 mmHg 88%
    04:00 +14°C° 0,1 mm 4 m/S 742 mmHg 88%
    05:00 +14°C° 0,1 mm 4 m/S 742 mmHg 87%
    06:00 +14°C° 0,1 mm 4 m/S 741 mmHg 87%
    07:00 +14°C° 0 mm 5 m/S 742 mmHg 85%
    08:00 +15°C° 0 mm 5 m/S 742 mmHg 82%
    09:00 +15°C° 0 mm 6 m/S 742 mmHg 80%
    10:00 +15°C° 0,1 mm 6 m/S 742 mmHg 80%
    11:00 +15°C° 0,1 mm 6 m/S 743 mmHg 79%
    12:00 +16°C° 0,1 mm 5 m/S 743 mmHg 78%
    13:00 +16°C° 0,1 mm 5 m/S 743 mmHg 76%
    14:00 +16°C° 0,1 mm 5 m/S 743 mmHg 74%
    15:00 +17°C° 0,1 mm 4 m/S 743 mmHg 72%
    16:00 +15°C° 0 mm 4 m/S 743 mmHg 78%
    17:00 +14°C° 0 mm 3 m/S 744 mmHg 83%
    18:00 +14°C° 0 mm 2 m/S 744 mmHg 88%
    19:00 +14°C° 0 mm 2 m/S 744 mmHg 88%
    20:00 +14°C° 0 mm 2 m/S 744 mmHg 89%
    21:00 +13°C° 0 mm 3 m/S 744 mmHg 89%
    22:00 +14°C° 0 mm 3 m/S 744 mmHg 87%
    23:00 +14°C° 0 mm 3 m/S 744 mmHg 86%

    21 Oktober, Samstag

    Zeit Temperatur Niederschläge Wind Luftdruck Luftfeuchtigkeit
    00:00 +16°C° 0 mm 3 m/S 743 mmHg 84%
    01:00 +15°C° 0,4 mm 4 m/S 743 mmHg 86%
    02:00 +15°C° 0,4 mm 4 m/S 743 mmHg 87%
    03:00 +15°C° 0,4 mm 4 m/S 742 mmHg 89%
    04:00 +15°C° 0,4 mm 4 m/S 742 mmHg 90%
    05:00 +15°C° 0,4 mm 4 m/S 742 mmHg 91%
    06:00 +15°C° 0,4 mm 4 m/S 742 mmHg 92%
    07:00 +15°C° 0,6 mm 4 m/S 743 mmHg 92%
    08:00 +15°C° 0,6 mm 4 m/S 743 mmHg 91%
    09:00 +16°C° 0,6 mm 3 m/S 743 mmHg 91%
    10:00 +16°C° 1,8 mm 3 m/S 743 mmHg 91%
    11:00 +16°C° 1,8 mm 3 m/S 743 mmHg 91%
    12:00 +16°C° 1,8 mm 3 m/S 743 mmHg 91%
    13:00 +16°C° 0,6 mm 3 m/S 743 mmHg 89%
    14:00 +14°C° 0,6 mm 4 m/S 743 mmHg 87%
    15:00 +14°C° 0,6 mm 4 m/S 743 mmHg 85%
    16:00 +13°C° 0 mm 4 m/S 743 mmHg 86%
    17:00 +13°C° 0 mm 4 m/S 743 mmHg 86%
    18:00 +12°C° 0 mm 4 m/S 743 mmHg 86%
    19:00 +12°C° 0 mm 4 m/S 743 mmHg 86%
    20:00 +11°C° 0 mm 4 m/S 743 mmHg 86%
    21:00 +11°C° 0 mm 4 m/S 743 mmHg 86%
    22:00 +11°C° 0 mm 4 m/S 743 mmHg 86%
    23:00 +10°C° 0 mm 4 m/S 743 mmHg 86%

    22 Oktober, Sonntag

    Zeit Temperatur Niederschläge Wind Luftdruck Luftfeuchtigkeit
    00:00 +10°C° 0 mm 4 m/S 742 mmHg 86%
    01:00 +10°C° 0 mm 4 m/S 742 mmHg 85%
    02:00 +8°C° 0 mm 5 m/S 743 mmHg 84%
    03:00 +8°C° 0 mm 5 m/S 743 mmHg 83%
    04:00 +8°C° 0 mm 5 m/S 743 mmHg 82%
    05:00 +8°C° 0 mm 5 m/S 743 mmHg 81%
    06:00 +8°C° 0 mm 5 m/S 743 mmHg 80%
    07:00 +8°C° 0 mm 6 m/S 743 mmHg 77%
    08:00 +9°C° 0 mm 6 m/S 743 mmHg 74%
    09:00 +9°C° 0 mm 7 m/S 743 mmHg 72%
    10:00 +10°C° 0,1 mm 7 m/S 743 mmHg 71%
    11:00 +10°C° 0,1 mm 7 m/S 743 mmHg 70%
    12:00 +10°C° 0,1 mm 7 m/S 743 mmHg 70%
    13:00 +10°C° 0,2 mm 7 m/S 743 mmHg 72%
    14:00 +9°C° 0,2 mm 6 m/S 744 mmHg 75%
    15:00 +9°C° 0,2 mm 6 m/S 744 mmHg 78%
    16:00 +9°C° 0,2 mm 6 m/S 744 mmHg 79%
    17:00 +8°C° 0,2 mm 5 m/S 745 mmHg 81%
    18:00 +8°C° 0,2 mm 5 m/S 745 mmHg 83%
    19:00 +8°C° 0,4 mm 5 m/S 745 mmHg 84%
    20:00 +8°C° 0,4 mm 5 m/S 746 mmHg 85%
    21:00 +7°C° 0,4 mm 5 m/S 746 mmHg 86%
    22:00 +7°C° 0,1 mm 5 m/S 746 mmHg 87%
    23:00 +7°C° 0,1 mm 4 m/S 747 mmHg 87%
    Mehr zeigen